owner,sensor,date,latitude,longitude,vertical_datum,sea_water_practical_salinity,qcFlag 
DISL,ioos:station:DISL:CATA:1,2011-03-01T00:11:00Z,30.3085,-88.1395,2.448,18.69,1111122 
DISL,ioos:station:DISL:CATA:1,2011-03-01T00:41:00Z,30.3085,-88.1395,2.457,19.02,1111122 
DISL,ioos:station:DISL:CATA:1,2011-03-01T01:11:00Z,30.3085,-88.1395,2.461,19.14,1111122 
DISL,ioos:station:DISL:CATA:1,2011-03-01T01:41:00Z,30.3085,-88.1395,2.44,19.5,1111122 
DISL,ioos:station:DISL:CATA:1,2011-03-01T02:11:00Z,30.3085,-88.1395,2.431,19.26,1111122 
DISL,ioos:station:DISL:CATA:1,2011-03-01T02:41:00Z,30.3085,-88.1395,2.409,19.23,1111122 
DISL,ioos:station:DISL:CATA:1,2011-03-01T03:11:00Z,30.3085,-88.1395,2.417,19.46,1111122 
DISL,ioos:station:DISL:CATA:1,2011-03-01T03:41:00Z,30.3085,-88.1395,2.419,20.96,1111122 
DISL,ioos:station:DISL:CATA:1,2011-03-01T04:11:00Z,30.3085,-88.1395,2.313,19.31,1111122 
DISL,ioos:station:DISL:CATA:1,2011-03-01T04:41:00Z,30.3085,-88.1395,2.282,18.03,1111122 
DISL,ioos:station:DISL:CATA:1,2011-03-01T05:11:00Z,30.3085,-88.1395,2.278,18.18,1111122 
DISL,ioos:station:DISL:CATA:1,2011-03-01T05:41:00Z,30.3085,-88.1395,2.235,18.64,1111122 
DISL,ioos:station:DISL:CATA:1,2011-03-01T06:11:00Z,30.3085,-88.1395,2.183,18.12,1111122 
DISL,ioos:station:DISL:CATA:1,2011-03-01T06:41:00Z,30.3085,-88.1395,2.139,18.74,1111122 
DISL,ioos:station:DISL:CATA:1,2011-03-01T07:11:00Z,30.3085,-88.1395,2.081,19.11,1111122 
DISL,ioos:station:DISL:CATA:1,2011-03-01T07:41:00Z,30.3085,-88.1395,2.024,19.47,1111122 
DISL,ioos:station:DISL:CATA:1,2011-03-01T08:11:00Z,30.3085,-88.1395,1.963,19.88,1111122 
DISL,ioos:station:DISL:CATA:1,2011-03-01T08:41:00Z,30.3085,-88.1395,1.922,20.19,1111122 
DISL,ioos:station:DISL:CATA:1,2011-03-01T09:11:00Z,30.3085,-88.1395,1.888,20.73,1111122 
DISL,ioos:station:DISL:CATA:1,2011-03-01T09:41:00Z,30.3085,-88.1395,1.845,21.06,1111122 
DISL,ioos:station:DISL:CATA:1,2011-03-01T10:11:00Z,30.3085,-88.1395,1.827,21.08,1111122 
DISL,ioos:station:DISL:CATA:1,2011-03-01T10:41:00Z,30.3085,-88.1395,1.782,20.42,1111122 
DISL,ioos:station:DISL:CATA:1,2011-03-01T11:11:00Z,30.3085,-88.1395,1.751,20.33,1111122 
DISL,ioos:station:DISL:CATA:1,2011-03-01T11:41:00Z,30.3085,-88.1395,1.736,20.23,1111122 
DISL,ioos:station:DISL:CATA:1,2011-03-01T12:11:00Z,30.3085,-88.1395,1.725,20.16,1111122 
DISL,ioos:station:DISL:CATA:1,2011-03-01T12:41:00Z,30.3085,-88.1395,1.722,19.96,1111122 
DISL,ioos:station:DISL:CATA:1,2011-03-01T13:11:00Z,30.3085,-88.1395,1.732,19.83,1111122 
DISL,ioos:station:DISL:CATA:1,2011-03-01T13:41:00Z,30.3085,-88.1395,1.735,19.71,1111122 
DISL,ioos:station:DISL:CATA:1,2011-03-01T14:11:00Z,30.3085,-88.1395,1.756,19.64,1111122 
DISL,ioos:station:DISL:CATA:1,2011-03-01T14:41:00Z,30.3085,-88.1395,1.787,19.57,1111122 
DISL,ioos:station:DISL:CATA:1,2011-03-01T15:11:00Z,30.3085,-88.1395,1.808,19.55,1111122 
DISL,ioos:station:DISL:CATA:1,2011-03-01T15:41:00Z,30.3085,-88.1395,1.819,19.6,1111122 
DISL,ioos:station:DISL:CATA:1,2011-03-01T16:11:00Z,30.3085,-88.1395,1.84,19.51,1111122 
DISL,ioos:station:DISL:CATA:1,2011-03-01T16:41:00Z,30.3085,-88.1395,1.868,19.69,1111122 
DISL,ioos:station:DISL:CATA:1,2011-03-01T17:11:00Z,30.3085,-88.1395,1.88,19.52,1111122 
DISL,ioos:station:DISL:CATA:1,2011-03-01T17:41:00Z,30.3085,-88.1395,1.897,19.87,1111122 
DISL,ioos:station:DISL:CATA:1,2011-03-01T18:11:00Z,30.3085,-88.1395,1.913,19.92,1111122 
DISL,ioos:station:DISL:CATA:1,2011-03-01T18:41:00Z,30.3085,-88.1395,1.946,19.88,1111122 
DISL,ioos:station:DISL:CATA:1,2011-03-01T19:11:00Z,30.3085,-88.1395,1.981,20.06,1111122 
DISL,ioos:station:DISL:CATA:1,2011-03-01T19:41:00Z,30.3085,-88.1395,2.0,19.86,1111122 
DISL,ioos:station:DISL:CATA:1,2011-03-01T20:11:00Z,30.3085,-88.1395,2.021,19.42,1111122 
DISL,ioos:station:DISL:CATA:1,2011-03-01T20:41:00Z,30.3085,-88.1395,2.05,18.97,1111122 
DISL,ioos:station:DISL:CATA:1,2011-03-01T21:11:00Z,30.3085,-88.1395,2.07,18.8,1111122 
DISL,ioos:station:DISL:CATA:1,2011-03-01T21:41:00Z,30.3085,-88.1395,2.105,19.35,1111122 
DISL,ioos:station:DISL:CATA:1,2011-03-01T22:11:00Z,30.3085,-88.1395,2.13,20.11,1111122 
DISL,ioos:station:DISL:CATA:1,2011-03-01T22:41:00Z,30.3085,-88.1395,2.159,19.83,1111122 
DISL,ioos:station:DISL:CATA:1,2011-03-01T23:11:00Z,30.3085,-88.1395,2.193,19.41,1111122 
DISL,ioos:station:DISL:CATA:1,2011-03-01T23:41:00Z,30.3085,-88.1395,2.233,19.36,1111122 
DISL,ioos:station:DISL:CATA:1,2011-03-02T00:11:00Z,30.3085,-88.1395,2.269,19.38,1111122 
DISL,ioos:station:DISL:CATA:1,2011-03-02T00:41:00Z,30.3085,-88.1395,2.293,19.61,1111122 
DISL,ioos:station:DISL:CATA:1,2011-03-02T01:11:00Z,30.3085,-88.1395,2.317,20.21,1111122 
DISL,ioos:station:DISL:CATA:1,2011-03-02T01:41:00Z,30.3085,-88.1395,2.33,20.53,1111122 
DISL,ioos:station:DISL:CATA:1,2011-03-02T02:11:00Z,30.3085,-88.1395,2.335,21.26,1111122 
DISL,ioos:station:DISL:CATA:1,2011-03-02T02:41:00Z,30.3085,-88.1395,2.353,21.42,1111122 
DISL,ioos:station:DISL:CATA:1,2011-03-02T03:11:00Z,30.3085,-88.1395,2.36,21.4,1111122 
DISL,ioos:station:DISL:CATA:1,2011-03-02T03:41:00Z,30.3085,-88.1395,2.348,23.41,1111122 
DISL,ioos:station:DISL:CATA:1,2011-03-02T04:11:00Z,30.3085,-88.1395,2.327,23.76,1111122 
DISL,ioos:station:DISL:CATA:1,2011-03-02T04:41:00Z,30.3085,-88.1395,2.306,23.45,1111122 
DISL,ioos:station:DISL:CATA:1,2011-03-02T05:11:00Z,30.3085,-88.1395,2.276,21.47,1111122 
DISL,ioos:station:DISL:CATA:1,2011-03-02T05:41:00Z,30.3085,-88.1395,2.251,17.41,1111122 
DISL,ioos:station:DISL:CATA:1,2011-03-02T06:11:00Z,30.3085,-88.1395,2.227,16.71,1111122 
DISL,ioos:station:DISL:CATA:1,2011-03-02T06:41:00Z,30.3085,-88.1395,2.178,16.12,1111122 
DISL,ioos:station:DISL:CATA:1,2011-03-02T07:11:00Z,30.3085,-88.1395,2.145,15.97,1111122 
DISL,ioos:station:DISL:CATA:1,2011-03-02T07:41:00Z,30.3085,-88.1395,2.103,16.24,1111122 
DISL,ioos:station:DISL:CATA:1,2011-03-02T08:11:00Z,30.3085,-88.1395,2.068,16.24,1111122 
DISL,ioos:station:DISL:CATA:1,2011-03-02T08:41:00Z,30.3085,-88.1395,2.034,16.13,1111122 
DISL,ioos:station:DISL:CATA:1,2011-03-02T09:11:00Z,30.3085,-88.1395,1.998,15.87,1111122 
DISL,ioos:station:DISL:CATA:1,2011-03-02T09:41:00Z,30.3085,-88.1395,1.973,15.72,1111122 
DISL,ioos:station:DISL:CATA:1,2011-03-02T10:11:00Z,30.3085,-88.1395,1.958,15.54,1111122 
DISL,ioos:station:DISL:CATA:1,2011-03-02T10:41:00Z,30.3085,-88.1395,1.933,15.33,1111122 
DISL,ioos:station:DISL:CATA:1,2011-03-02T11:11:00Z,30.3085,-88.1395,1.925,15.2,1111122 
DISL,ioos:station:DISL:CATA:1,2011-03-02T11:41:00Z,30.3085,-88.1395,1.926,15.07,1111122 
DISL,ioos:station:DISL:CATA:1,2011-03-02T12:11:00Z,30.3085,-88.1395,1.927,15.14,1111122 
DISL,ioos:station:DISL:CATA:1,2011-03-02T12:41:00Z,30.3085,-88.1395,1.929,15.33,1111122 
DISL,ioos:station:DISL:CATA:1,2011-03-02T13:11:00Z,30.3085,-88.1395,1.927,15.52,1111122 
DISL,ioos:station:DISL:CATA:1,2011-03-02T13:41:00Z,30.3085,-88.1395,1.924,15.85,1111122 
DISL,ioos:station:DISL:CATA:1,2011-03-02T14:11:00Z,30.3085,-88.1395,1.927,16.18,1111122 
DISL,ioos:station:DISL:CATA:1,2011-03-02T14:41:00Z,30.3085,-88.1395,1.935,16.47,1111122 
DISL,ioos:station:DISL:CATA:1,2011-03-02T15:11:00Z,30.3085,-88.1395,1.939,16.73,1111122 
DISL,ioos:station:DISL:CATA:1,2011-03-02T15:41:00Z,30.3085,-88.1395,1.944,16.92,1111122 
DISL,ioos:station:DISL:CATA:1,2011-03-02T16:11:00Z,30.3085,-88.1395,1.948,16.93,1111122 
DISL,ioos:station:DISL:CATA:1,2011-03-02T16:41:00Z,30.3085,-88.1395,1.959,16.96,1111122 
DISL,ioos:station:DISL:CATA:1,2011-03-02T17:11:00Z,30.3085,-88.1395,1.972,17.03,1111122 
DISL,ioos:station:DISL:CATA:1,2011-03-02T17:41:00Z,30.3085,-88.1395,1.98,17.1,1111122 
DISL,ioos:station:DISL:CATA:1,2011-03-02T18:11:00Z,30.3085,-88.1395,2.006,17.1,1111122 
DISL,ioos:station:DISL:CATA:1,2011-03-02T18:41:00Z,30.3085,-88.1395,2.013,16.99,1111122 
DISL,ioos:station:DISL:CATA:1,2011-03-02T19:11:00Z,30.3085,-88.1395,2.015,16.8,1111122 
DISL,ioos:station:DISL:CATA:1,2011-03-02T19:41:00Z,30.3085,-88.1395,2.021,16.7,1111122 
DISL,ioos:station:DISL:CATA:1,2011-03-02T20:11:00Z,30.3085,-88.1395,2.026,16.71,1111122 
DISL,ioos:station:DISL:CATA:1,2011-03-02T20:41:00Z,30.3085,-88.1395,2.015,16.74,1111122 
DISL,ioos:station:DISL:CATA:1,2011-03-02T21:11:00Z,30.3085,-88.1395,2.012,16.55,1111122 
DISL,ioos:station:DISL:CATA:1,2011-03-02T21:41:00Z,30.3085,-88.1395,2.025,16.4,1111122 
DISL,ioos:station:DISL:CATA:1,2011-03-02T22:11:00Z,30.3085,-88.1395,2.043,16.29,1111122 
DISL,ioos:station:DISL:CATA:1,2011-03-02T22:41:00Z,30.3085,-88.1395,2.055,16.3,1111122 
DISL,ioos:station:DISL:CATA:1,2011-03-02T23:11:00Z,30.3085,-88.1395,2.081,16.4,1111122 
DISL,ioos:station:DISL:CATA:1,2011-03-02T23:41:00Z,30.3085,-88.1395,2.101,16.34,1111122 
DISL,ioos:station:DISL:CATA:1,2011-03-03T00:11:00Z,30.3085,-88.1395,2.131,16.2,1111122 
DISL,ioos:station:DISL:CATA:1,2011-03-03T00:41:00Z,30.3085,-88.1395,2.151,16.11,1111122 
DISL,ioos:station:DISL:CATA:1,2011-03-03T01:11:00Z,30.3085,-88.1395,2.169,16.18,1111122 
DISL,ioos:station:DISL:CATA:1,2011-03-03T01:41:00Z,30.3085,-88.1395,2.186,16.12,1111122 
DISL,ioos:station:DISL:CATA:1,2011-03-03T02:11:00Z,30.3085,-88.1395,2.184,16.16,1111122 
DISL,ioos:station:DISL:CATA:1,2011-03-03T02:41:00Z,30.3085,-88.1395,2.189,16.27,1111122 
DISL,ioos:station:DISL:CATA:1,2011-03-03T03:11:00Z,30.3085,-88.1395,2.196,16.31,1111122 
DISL,ioos:station:DISL:CATA:1,2011-03-03T03:41:00Z,30.3085,-88.1395,2.212,16.36,1111122 
DISL,ioos:station:DISL:CATA:1,2011-03-03T04:11:00Z,30.3085,-88.1395,2.218,16.25,1111122 
DISL,ioos:station:DISL:CATA:1,2011-03-03T04:41:00Z,30.3085,-88.1395,2.223,16.36,1111122 
DISL,ioos:station:DISL:CATA:1,2011-03-03T05:11:00Z,30.3085,-88.1395,2.228,16.52,1111122 
DISL,ioos:station:DISL:CATA:1,2011-03-03T05:41:00Z,30.3085,-88.1395,2.233,16.54,1111122 
DISL,ioos:station:DISL:CATA:1,2011-03-03T06:11:00Z,30.3085,-88.1395,2.226,16.54,1111122 
DISL,ioos:station:DISL:CATA:1,2011-03-03T06:41:00Z,30.3085,-88.1395,2.211,16.59,1111122 
DISL,ioos:station:DISL:CATA:1,2011-03-03T07:11:00Z,30.3085,-88.1395,2.192,16.61,1111122 
DISL,ioos:station:DISL:CATA:1,2011-03-03T07:41:00Z,30.3085,-88.1395,2.17,16.58,1111122 
DISL,ioos:station:DISL:CATA:1,2011-03-03T08:11:00Z,30.3085,-88.1395,2.138,16.6,1111122 
DISL,ioos:station:DISL:CATA:1,2011-03-03T08:41:00Z,30.3085,-88.1395,2.12,16.33,1111122 
DISL,ioos:station:DISL:CATA:1,2011-03-03T09:11:00Z,30.3085,-88.1395,2.086,15.79,1111122 
DISL,ioos:station:DISL:CATA:1,2011-03-03T09:41:00Z,30.3085,-88.1395,2.052,15.95,1111122 
DISL,ioos:station:DISL:CATA:1,2011-03-03T10:11:00Z,30.3085,-88.1395,2.034,15.94,1111122 
DISL,ioos:station:DISL:CATA:1,2011-03-03T10:41:00Z,30.3085,-88.1395,2.027,16.06,1111122 
DISL,ioos:station:DISL:CATA:1,2011-03-03T11:11:00Z,30.3085,-88.1395,2.037,16.05,1111122 
DISL,ioos:station:DISL:CATA:1,2011-03-03T11:41:00Z,30.3085,-88.1395,2.031,16.09,1111122 
DISL,ioos:station:DISL:CATA:1,2011-03-03T12:11:00Z,30.3085,-88.1395,2.053,16.17,1111122 
DISL,ioos:station:DISL:CATA:1,2011-03-03T12:41:00Z,30.3085,-88.1395,2.061,16.08,1111122 
DISL,ioos:station:DISL:CATA:1,2011-03-03T13:11:00Z,30.3085,-88.1395,2.072,16.0,1111122 
DISL,ioos:station:DISL:CATA:1,2011-03-03T13:41:00Z,30.3085,-88.1395,2.088,15.97,1111122 
DISL,ioos:station:DISL:CATA:1,2011-03-03T14:11:00Z,30.3085,-88.1395,2.095,15.95,1111122 
DISL,ioos:station:DISL:CATA:1,2011-03-03T14:41:00Z,30.3085,-88.1395,2.116,15.92,1111122 
DISL,ioos:station:DISL:CATA:1,2011-03-03T15:11:00Z,30.3085,-88.1395,2.13,15.76,1111122 
DISL,ioos:station:DISL:CATA:1,2011-03-03T15:41:00Z,30.3085,-88.1395,2.135,15.66,1111122 
DISL,ioos:station:DISL:CATA:1,2011-03-03T16:11:00Z,30.3085,-88.1395,2.148,15.66,1111122 
DISL,ioos:station:DISL:CATA:1,2011-03-03T16:41:00Z,30.3085,-88.1395,2.178,15.59,1111122 
DISL,ioos:station:DISL:CATA:1,2011-03-03T17:11:00Z,30.3085,-88.1395,2.225,15.54,1111122 
DISL,ioos:station:DISL:CATA:1,2011-03-03T17:41:00Z,30.3085,-88.1395,2.201,16.09,1111122 
DISL,ioos:station:DISL:CATA:1,2011-03-03T18:11:00Z,30.3085,-88.1395,2.194,16.32,1111122 
DISL,ioos:station:DISL:CATA:1,2011-03-03T18:41:00Z,30.3085,-88.1395,2.214,16.13,1111122 
DISL,ioos:station:DISL:CATA:1,2011-03-03T19:11:00Z,30.3085,-88.1395,2.227,15.86,1111122 
DISL,ioos:station:DISL:CATA:1,2011-03-03T19:41:00Z,30.3085,-88.1395,2.229,16.05,1111122 
DISL,ioos:station:DISL:CATA:1,2011-03-03T20:11:00Z,30.3085,-88.1395,2.228,16.33,1111122 
DISL,ioos:station:DISL:CATA:1,2011-03-03T20:41:00Z,30.3085,-88.1395,2.23,16.39,1111122 
DISL,ioos:station:DISL:CATA:1,2011-03-03T21:11:00Z,30.3085,-88.1395,2.216,15.9,1111122 
DISL,ioos:station:DISL:CATA:1,2011-03-03T21:41:00Z,30.3085,-88.1395,2.181,16.43,1111122 
DISL,ioos:station:DISL:CATA:1,2011-03-03T22:11:00Z,30.3085,-88.1395,2.198,15.94,1111122 
DISL,ioos:station:DISL:CATA:1,2011-03-03T22:41:00Z,30.3085,-88.1395,2.217,17.54,1111122 
DISL,ioos:station:DISL:CATA:1,2011-03-03T23:11:00Z,30.3085,-88.1395,2.23,18.29,1111122 
DISL,ioos:station:DISL:CATA:1,2011-03-03T23:41:00Z,30.3085,-88.1395,2.236,18.93,1111122 
DISL,ioos:station:DISL:CATA:1,2011-03-04T00:11:00Z,30.3085,-88.1395,2.26,19.23,1111122 
DISL,ioos:station:DISL:CATA:1,2011-03-04T00:41:00Z,30.3085,-88.1395,2.259,19.77,1111122 
DISL,ioos:station:DISL:CATA:1,2011-03-04T01:11:00Z,30.3085,-88.1395,2.265,20.14,1111122 
DISL,ioos:station:DISL:CATA:1,2011-03-04T01:41:00Z,30.3085,-88.1395,2.279,20.35,1111122 
DISL,ioos:station:DISL:CATA:1,2011-03-04T02:11:00Z,30.3085,-88.1395,2.282,20.31,1111122 
DISL,ioos:station:DISL:CATA:1,2011-03-04T02:41:00Z,30.3085,-88.1395,2.3,20.31,1111122 
DISL,ioos:station:DISL:CATA:1,2011-03-04T03:11:00Z,30.3085,-88.1395,2.3,20.37,1111122 
DISL,ioos:station:DISL:CATA:1,2011-03-04T03:41:00Z,30.3085,-88.1395,2.285,20.5,1111122 
DISL,ioos:station:DISL:CATA:1,2011-03-04T04:11:00Z,30.3085,-88.1395,2.287,20.61,1111122 
DISL,ioos:station:DISL:CATA:1,2011-03-04T04:41:00Z,30.3085,-88.1395,2.285,20.6,1111122 
DISL,ioos:station:DISL:CATA:1,2011-03-04T05:11:00Z,30.3085,-88.1395,2.279,20.57,1111122 
DISL,ioos:station:DISL:CATA:1,2011-03-04T05:41:00Z,30.3085,-88.1395,2.263,20.53,1111122 
DISL,ioos:station:DISL:CATA:1,2011-03-04T06:11:00Z,30.3085,-88.1395,2.247,20.47,1111122 
DISL,ioos:station:DISL:CATA:1,2011-03-04T06:41:00Z,30.3085,-88.1395,2.246,20.55,1111122 
DISL,ioos:station:DISL:CATA:1,2011-03-04T07:11:00Z,30.3085,-88.1395,2.228,20.48,1111122 
DISL,ioos:station:DISL:CATA:1,2011-03-04T07:41:00Z,30.3085,-88.1395,2.21,20.47,1111122 
DISL,ioos:station:DISL:CATA:1,2011-03-04T08:11:00Z,30.3085,-88.1395,2.209,20.42,1111122 
DISL,ioos:station:DISL:CATA:1,2011-03-04T08:41:00Z,30.3085,-88.1395,2.185,20.3,1111122 
DISL,ioos:station:DISL:CATA:1,2011-03-04T09:11:00Z,30.3085,-88.1395,2.148,20.1,1111122 
DISL,ioos:station:DISL:CATA:1,2011-03-04T09:41:00Z,30.3085,-88.1395,2.091,20.0,1111122 
DISL,ioos:station:DISL:CATA:1,2011-03-04T10:11:00Z,30.3085,-88.1395,2.048,19.97,1111122 
DISL,ioos:station:DISL:CATA:1,2011-03-04T10:41:00Z,30.3085,-88.1395,2.038,19.9,1111122 
DISL,ioos:station:DISL:CATA:1,2011-03-04T11:11:00Z,30.3085,-88.1395,1.991,20.14,1111122 
DISL,ioos:station:DISL:CATA:1,2011-03-04T11:41:00Z,30.3085,-88.1395,1.982,20.03,1111122 
DISL,ioos:station:DISL:CATA:1,2011-03-04T12:11:00Z,30.3085,-88.1395,1.991,19.87,1111122 
DISL,ioos:station:DISL:CATA:1,2011-03-04T12:41:00Z,30.3085,-88.1395,2.016,19.82,1111122 
DISL,ioos:station:DISL:CATA:1,2011-03-04T13:11:00Z,30.3085,-88.1395,2.038,19.82,1111122 
DISL,ioos:station:DISL:CATA:1,2011-03-04T13:41:00Z,30.3085,-88.1395,2.004,19.8,1111122 
DISL,ioos:station:DISL:CATA:1,2011-03-04T14:11:00Z,30.3085,-88.1395,2.072,19.72,1111122 
DISL,ioos:station:DISL:CATA:1,2011-03-04T14:41:00Z,30.3085,-88.1395,2.012,19.72,1111122 
DISL,ioos:station:DISL:CATA:1,2011-03-04T15:11:00Z,30.3085,-88.1395,2.07,19.87,1111122 
DISL,ioos:station:DISL:CATA:1,2011-03-04T15:41:00Z,30.3085,-88.1395,2.086,19.82,1111122 
DISL,ioos:station:DISL:CATA:1,2011-03-04T16:11:00Z,30.3085,-88.1395,2.102,19.95,1111122 
DISL,ioos:station:DISL:CATA:1,2011-03-04T16:41:00Z,30.3085,-88.1395,2.134,19.78,1111122 
DISL,ioos:station:DISL:CATA:1,2011-03-04T17:11:00Z,30.3085,-88.1395,2.163,19.95,1111122 
DISL,ioos:station:DISL:CATA:1,2011-03-04T17:41:00Z,30.3085,-88.1395,2.177,19.85,1111122 
DISL,ioos:station:DISL:CATA:1,2011-03-04T18:11:00Z,30.3085,-88.1395,2.172,20.73,1111122 
DISL,ioos:station:DISL:CATA:1,2011-03-04T18:41:00Z,30.3085,-88.1395,2.207,22.69,1111122 
DISL,ioos:station:DISL:CATA:1,2011-03-04T19:11:00Z,30.3085,-88.1395,2.292,23.26,1111122 
DISL,ioos:station:DISL:CATA:1,2011-03-04T19:41:00Z,30.3085,-88.1395,2.238,23.12,1111122 
DISL,ioos:station:DISL:CATA:1,2011-03-04T20:11:00Z,30.3085,-88.1395,2.241,22.96,1111122 
DISL,ioos:station:DISL:CATA:1,2011-03-04T20:41:00Z,30.3085,-88.1395,2.161,23.61,1111122 
DISL,ioos:station:DISL:CATA:1,2011-03-04T21:11:00Z,30.3085,-88.1395,2.255,23.67,1111122 
DISL,ioos:station:DISL:CATA:1,2011-03-04T21:41:00Z,30.3085,-88.1395,2.297,23.76,1111122 
DISL,ioos:station:DISL:CATA:1,2011-03-04T22:11:00Z,30.3085,-88.1395,2.34,24.93,1111122 
DISL,ioos:station:DISL:CATA:1,2011-03-04T22:41:00Z,30.3085,-88.1395,2.272,24.14,1111122 
DISL,ioos:station:DISL:CATA:1,2011-03-04T23:11:00Z,30.3085,-88.1395,2.283,23.99,1111122 
DISL,ioos:station:DISL:CATA:1,2011-03-04T23:41:00Z,30.3085,-88.1395,2.393,23.57,1111122 
DISL,ioos:station:DISL:CATA:1,2011-03-05T00:11:00Z,30.3085,-88.1395,2.317,24.29,1111122 
DISL,ioos:station:DISL:CATA:1,2011-03-05T00:41:00Z,30.3085,-88.1395,2.333,25.21,1111122 
DISL,ioos:station:DISL:CATA:1,2011-03-05T01:11:00Z,30.3085,-88.1395,2.373,25.49,1111122 
DISL,ioos:station:DISL:CATA:1,2011-03-05T01:41:00Z,30.3085,-88.1395,2.396,25.79,1111122 
DISL,ioos:station:DISL:CATA:1,2011-03-05T02:11:00Z,30.3085,-88.1395,2.414,25.78,1111122 
DISL,ioos:station:DISL:CATA:1,2011-03-05T02:41:00Z,30.3085,-88.1395,2.429,25.69,1111122 
DISL,ioos:station:DISL:CATA:1,2011-03-05T03:11:00Z,30.3085,-88.1395,2.425,25.94,1111122 
DISL,ioos:station:DISL:CATA:1,2011-03-05T03:41:00Z,30.3085,-88.1395,2.432,26.33,1111122 
DISL,ioos:station:DISL:CATA:1,2011-03-05T04:11:00Z,30.3085,-88.1395,2.449,26.47,1111122 
DISL,ioos:station:DISL:CATA:1,2011-03-05T04:41:00Z,30.3085,-88.1395,2.443,26.13,1111122 
DISL,ioos:station:DISL:CATA:1,2011-03-05T05:11:00Z,30.3085,-88.1395,2.441,26.0,1111122 
DISL,ioos:station:DISL:CATA:1,2011-03-05T05:41:00Z,30.3085,-88.1395,2.376,26.35,1111122 
DISL,ioos:station:DISL:CATA:1,2011-03-05T06:11:00Z,30.3085,-88.1395,2.472,26.7,1111122 
DISL,ioos:station:DISL:CATA:1,2011-03-05T06:41:00Z,30.3085,-88.1395,2.45,27.08,1111122 
DISL,ioos:station:DISL:CATA:1,2011-03-05T07:11:00Z,30.3085,-88.1395,2.434,26.6,1111122 
DISL,ioos:station:DISL:CATA:1,2011-03-05T07:41:00Z,30.3085,-88.1395,2.395,25.49,1111122 
DISL,ioos:station:DISL:CATA:1,2011-03-05T08:11:00Z,30.3085,-88.1395,2.37,25.35,1111122 
DISL,ioos:station:DISL:CATA:1,2011-03-05T08:41:00Z,30.3085,-88.1395,2.38,25.05,1111122 
DISL,ioos:station:DISL:CATA:1,2011-03-05T09:11:00Z,30.3085,-88.1395,2.345,24.8,1111122 
DISL,ioos:station:DISL:CATA:1,2011-03-05T09:41:00Z,30.3085,-88.1395,2.295,24.88,1111122 
DISL,ioos:station:DISL:CATA:1,2011-03-05T10:11:00Z,30.3085,-88.1395,2.289,25.08,1111122 
DISL,ioos:station:DISL:CATA:1,2011-03-05T10:41:00Z,30.3085,-88.1395,2.253,24.85,1111122 
DISL,ioos:station:DISL:CATA:1,2011-03-05T11:11:00Z,30.3085,-88.1395,2.253,24.56,1111122 
DISL,ioos:station:DISL:CATA:1,2011-03-05T11:41:00Z,30.3085,-88.1395,2.229,24.37,1111122 
DISL,ioos:station:DISL:CATA:1,2011-03-05T12:11:00Z,30.3085,-88.1395,2.231,23.99,1111122 
DISL,ioos:station:DISL:CATA:1,2011-03-05T12:41:00Z,30.3085,-88.1395,2.29,23.85,1111122 
DISL,ioos:station:DISL:CATA:1,2011-03-05T13:11:00Z,30.3085,-88.1395,2.302,23.71,1111122 
DISL,ioos:station:DISL:CATA:1,2011-03-05T13:41:00Z,30.3085,-88.1395,2.328,23.44,1111122 
DISL,ioos:station:DISL:CATA:1,2011-03-05T14:11:00Z,30.3085,-88.1395,2.322,23.24,1111122 
DISL,ioos:station:DISL:CATA:1,2011-03-05T14:41:00Z,30.3085,-88.1395,2.307,23.12,1111122 
DISL,ioos:station:DISL:CATA:1,2011-03-05T15:11:00Z,30.3085,-88.1395,2.314,23.03,1111122 
DISL,ioos:station:DISL:CATA:1,2011-03-05T15:41:00Z,30.3085,-88.1395,2.335,22.95,1111122 
DISL,ioos:station:DISL:CATA:1,2011-03-05T16:11:00Z,30.3085,-88.1395,2.346,22.81,1111122 
DISL,ioos:station:DISL:CATA:1,2011-03-05T16:41:00Z,30.3085,-88.1395,2.341,23.27,1111122 
DISL,ioos:station:DISL:CATA:1,2011-03-05T17:11:00Z,30.3085,-88.1395,2.34,23.57,1111122 
DISL,ioos:station:DISL:CATA:1,2011-03-05T17:41:00Z,30.3085,-88.1395,2.362,23.57,1111122 
DISL,ioos:station:DISL:CATA:1,2011-03-05T18:11:00Z,30.3085,-88.1395,2.367,23.85,1111122 
DISL,ioos:station:DISL:CATA:1,2011-03-05T18:41:00Z,30.3085,-88.1395,2.365,23.61,1111122 
DISL,ioos:station:DISL:CATA:1,2011-03-05T19:11:00Z,30.3085,-88.1395,2.361,23.53,1111122 
DISL,ioos:station:DISL:CATA:1,2011-03-05T19:41:00Z,30.3085,-88.1395,2.34,23.22,1111122 
DISL,ioos:station:DISL:CATA:1,2011-03-05T20:11:00Z,30.3085,-88.1395,2.328,23.05,1111122 
DISL,ioos:station:DISL:CATA:1,2011-03-05T20:41:00Z,30.3085,-88.1395,2.307,22.82,1111122 
DISL,ioos:station:DISL:CATA:1,2011-03-05T21:11:00Z,30.3085,-88.1395,2.302,22.69,1111122 
DISL,ioos:station:DISL:CATA:1,2011-03-05T21:41:00Z,30.3085,-88.1395,2.32,22.36,1111122 
DISL,ioos:station:DISL:CATA:1,2011-03-05T22:11:00Z,30.3085,-88.1395,2.323,22.2,1111122 
DISL,ioos:station:DISL:CATA:1,2011-03-05T22:41:00Z,30.3085,-88.1395,2.378,21.69,1111122 
DISL,ioos:station:DISL:CATA:1,2011-03-05T23:11:00Z,30.3085,-88.1395,2.428,21.53,1111122 
DISL,ioos:station:DISL:CATA:1,2011-03-05T23:41:00Z,30.3085,-88.1395,2.455,21.3,1111122 
DISL,ioos:station:DISL:CATA:1,2011-03-06T00:11:00Z,30.3085,-88.1395,2.434,21.56,1111122 
DISL,ioos:station:DISL:CATA:1,2011-03-06T00:41:00Z,30.3085,-88.1395,2.364,21.99,1111122 
DISL,ioos:station:DISL:CATA:1,2011-03-06T01:11:00Z,30.3085,-88.1395,2.321,22.26,1111122 
DISL,ioos:station:DISL:CATA:1,2011-03-06T01:41:00Z,30.3085,-88.1395,2.363,22.6,1111122 
DISL,ioos:station:DISL:CATA:1,2011-03-06T02:11:00Z,30.3085,-88.1395,2.377,22.55,1111122 
DISL,ioos:station:DISL:CATA:1,2011-03-06T02:41:00Z,30.3085,-88.1395,2.391,22.08,1111122 
DISL,ioos:station:DISL:CATA:1,2011-03-06T03:11:00Z,30.3085,-88.1395,2.354,22.27,1111122 
DISL,ioos:station:DISL:CATA:1,2011-03-06T03:41:00Z,30.3085,-88.1395,2.358,22.17,1111122 
DISL,ioos:station:DISL:CATA:1,2011-03-06T04:11:00Z,30.3085,-88.1395,2.367,22.38,1111122 
DISL,ioos:station:DISL:CATA:1,2011-03-06T04:41:00Z,30.3085,-88.1395,2.337,22.57,1111122 
DISL,ioos:station:DISL:CATA:1,2011-03-06T05:11:00Z,30.3085,-88.1395,2.342,22.62,1111122 
DISL,ioos:station:DISL:CATA:1,2011-03-06T05:41:00Z,30.3085,-88.1395,2.345,22.61,1111122 
DISL,ioos:station:DISL:CATA:1,2011-03-06T06:11:00Z,30.3085,-88.1395,2.318,22.52,1111122 
DISL,ioos:station:DISL:CATA:1,2011-03-06T06:41:00Z,30.3085,-88.1395,2.281,22.43,1111122 
DISL,ioos:station:DISL:CATA:1,2011-03-06T07:11:00Z,30.3085,-88.1395,2.23,22.34,1111122 
DISL,ioos:station:DISL:CATA:1,2011-03-06T07:41:00Z,30.3085,-88.1395,2.209,22.28,1111122 
DISL,ioos:station:DISL:CATA:1,2011-03-06T08:11:00Z,30.3085,-88.1395,2.179,22.04,1111122 
DISL,ioos:station:DISL:CATA:1,2011-03-06T08:41:00Z,30.3085,-88.1395,2.191,22.41,1111122 
DISL,ioos:station:DISL:CATA:1,2011-03-06T09:11:00Z,30.3085,-88.1395,2.187,22.37,1111122 
DISL,ioos:station:DISL:CATA:1,2011-03-06T09:41:00Z,30.3085,-88.1395,2.124,22.5,1111122 
DISL,ioos:station:DISL:CATA:1,2011-03-06T10:11:00Z,30.3085,-88.1395,2.078,23.2,1111122 
DISL,ioos:station:DISL:CATA:1,2011-03-06T10:41:00Z,30.3085,-88.1395,2.1,22.71,1111122 
DISL,ioos:station:DISL:CATA:1,2011-03-06T11:11:00Z,30.3085,-88.1395,2.14,21.89,1111122 
DISL,ioos:station:DISL:CATA:1,2011-03-06T11:41:00Z,30.3085,-88.1395,2.144,21.67,1111122 
DISL,ioos:station:DISL:CATA:1,2011-03-06T12:11:00Z,30.3085,-88.1395,2.079,21.43,1111122 
DISL,ioos:station:DISL:CATA:1,2011-03-06T12:41:00Z,30.3085,-88.1395,2.053,21.66,1111122 
DISL,ioos:station:DISL:CATA:1,2011-03-06T13:11:00Z,30.3085,-88.1395,2.062,21.52,1111122 
DISL,ioos:station:DISL:CATA:1,2011-03-06T13:41:00Z,30.3085,-88.1395,2.07,21.15,1111122 
DISL,ioos:station:DISL:CATA:1,2011-03-06T14:11:00Z,30.3085,-88.1395,2.064,21.1,1111122 